| time (UTC) | temp F | wind direction | speed MPH | gust MPH | rain 1hr in | rain 24hr in | rain mn in | humidity % | barometer mb |
| 20260903011830 | 72 | 75 | 0.0 | 3.0 | 0.00 | 0.01 | 0.00 | 90 | 1019.3 |
| 20260903011344 | 72 | 92 | 1.0 | 3.0 | 0.00 | 0.01 | 0.00 | 90 | 1019.2 |
| 20260903010817 | 72 | 67 | 0.0 | 3.0 | 0.00 | 0.01 | 0.00 | 90 | 1019.2 |
| 20260903010329 | 72 | 72 | 2.0 | 3.0 | 0.00 | 0.01 | 0.00 | 90 | 1019.3 |
| 20260903005841 | 72 | 79 | 1.0 | 4.0 | 0.00 | 0.01 | 0.00 | 90 | 1019.3 |
| 20260903005332 | 72 | 55 | 1.0 | 4.0 | 0.00 | 0.01 | 0.00 | 89 | 1019.0 |
| 20260903004824 | 72 | 94 | 1.0 | 3.0 | 0.00 | 0.01 | 0.00 | 89 | 1018.9 |
| 20260903004335 | 72 | 52 | 1.0 | 5.0 | 0.00 | 0.01 | 0.00 | 89 | 1019.1 |
| 20260903003825 | 72 | 68 | 2.0 | 5.0 | 0.00 | 0.19 | 0.00 | 89 | 1018.9 |
| 20260903003321 | 72 | 118 | 1.0 | 3.0 | 0.00 | 0.19 | 0.00 | 89 | 1019.0 |
| 20260903002852 | 72 | 75 | 2.0 | 3.0 | 0.00 | 0.19 | 0.00 | 89 | 1018.8 |
| 20260903002322 | 72 | 69 | 1.0 | 3.0 | 0.00 | 0.19 | 0.00 | 89 | 1018.9 |
| 20260903001817 | 72 | 96 | 1.0 | 5.0 | 0.00 | 0.19 | 0.00 | 89 | 1018.8 |
| 20260903001328 | 72 | 100 | 1.0 | 4.0 | 0.00 | 0.19 | 0.00 | 89 | 1018.8 |
| 20260903000819 | 72 | 122 | 2.0 | 4.0 | 0.00 | 0.19 | 0.00 | 89 | 1018.7 |
| 20260903000332 | 72 | 17 | 2.0 | 4.0 | 0.00 | 0.19 | 0.00 | 89 | 1018.4 |
| 20260902235822 | 72 | 153 | 1.0 | 4.0 | 0.00 | 0.19 | 0.00 | 89 | 1018.4 |
| 20260902235318 | 72 | 83 | 1.0 | 4.0 | 0.00 | 0.19 | 0.00 | 89 | 1018.4 |
| 20260902234828 | 72 | 119 | 1.0 | 4.0 | 0.00 | 0.19 | 0.00 | 89 | 1018.3 |
| 20260902234320 | 72 | 46 | 2.0 | 6.0 | 0.00 | 0.19 | 0.00 | 89 | 1018.3 |
| 20260902233851 | 72 | 124 | 1.0 | 6.0 | 0.00 | 0.19 | 0.00 | 89 | 1018.2 |
| 20260902233321 | 72 | 77 | 1.0 | 5.0 | 0.00 | 0.19 | 0.00 | 89 | 1018.1 |
| 20260902232853 | 72 | 79 | 2.0 | 5.0 | 0.00 | 0.19 | 0.00 | 88 | 1018.2 |
| 20260902232323 | 72 | 109 | 1.0 | 7.0 | 0.00 | 0.19 | 0.00 | 88 | 1018.2 |
| 20260902231815 | 72 | 101 | 2.0 | 7.0 | 0.00 | 0.19 | 0.00 | 88 | 1018.2 |
| 20260902231330 | 72 | 70 | 1.0 | 5.0 | 0.00 | 0.19 | 0.00 | 88 | 1018.4 |
| 20260902230821 | 72 | 65 | 1.0 | 6.0 | 0.00 | 0.19 | 0.00 | 88 | 1018.3 |
| 20260902230317 | 72 | 55 | 2.0 | 6.0 | 0.00 | 0.19 | 0.00 | 88 | 1018.5 |
| 20260902225828 | 72 | 167 | 1.0 | 5.0 | 0.00 | 0.19 | 0.00 | 88 | 1018.5 |
| 20260902225320 | 72 | 84 | 2.0 | 6.0 | 0.00 | 0.19 | 0.00 | 88 | 1018.7 |
| 20260902224830 | 72 | 73 | 2.0 | 8.0 | 0.00 | 0.19 | 0.00 | 87 | 1018.7 |
| 20260902224321 | 72 | 94 | 2.0 | 8.0 | 0.00 | 0.19 | 0.00 | 87 | 1018.7 |
| 20260902223815 | 72 | 74 | 2.0 | 7.0 | 0.00 | 0.19 | 0.00 | 87 | 1018.8 |
| 20260902223348 | 72 | 101 | 2.0 | 9.0 | 0.00 | 0.19 | 0.00 | 87 | 1018.8 |
| 20260902222821 | 72 | 32 | 2.0 | 9.0 | 0.00 | 0.19 | 0.00 | 87 | 1018.9 |
| 20260902222333 | 72 | 80 | 2.0 | 8.0 | 0.00 | 0.19 | 0.00 | 87 | 1019.0 |
| 20260902221845 | 72 | 88 | 2.0 | 6.0 | 0.00 | 0.19 | 0.00 | 87 | 1019.2 |
| 20260902220829 | 72 | 171 | 2.0 | 8.0 | 0.00 | 0.19 | 0.00 | 87 | 1019.5 |
| 20260902220320 | 72 | 47 | 2.0 | 7.0 | 0.00 | 0.19 | 0.00 | 86 | 1019.5 |
| 20260902215815 | 72 | 80 | 2.0 | 7.0 | 0.00 | 0.19 | 0.00 | 86 | 1019.4 |
| 20260902215326 | 72 | 28 | 2.0 | 6.0 | 0.00 | 0.19 | 0.00 | 86 | 1019.3 |
| 20260902214817 | 72 | 111 | 2.0 | 6.0 | 0.00 | 0.19 | 0.00 | 86 | 1019.1 |
| 20260902214329 | 72 | 71 | 2.0 | 6.0 | 0.00 | 0.19 | 0.00 | 86 | 1019.2 |
| 20260902213821 | 72 | 66 | 2.0 | 9.0 | 0.00 | 0.19 | 0.00 | 86 | 1019.4 |
| 20260902213317 | 72 | 38 | 4.0 | 9.0 | 0.00 | 0.19 | 0.00 | 86 | 1019.4 |
| 20260902212848 | 72 | 80 | 2.0 | 9.0 | 0.00 | 0.19 | 0.00 | 86 | 1019.4 |
| 20260902212318 | 73 | 42 | 2.0 | 5.0 | 0.00 | 0.19 | 0.00 | 86 | 1019.4 |
| 20260902211829 | 73 | 112 | 2.0 | 7.0 | 0.00 | 0.19 | 0.00 | 85 | 1019.4 |
| 20260902211323 | 73 | 17 | 3.0 | 7.0 | 0.00 | 0.19 | 0.00 | 85 | 1019.4 |
| 20260902210816 | 73 | 105 | 2.0 | 8.0 | 0.00 | 0.19 | 0.00 | 85 | 1019.2 |
| 20260902210326 | 73 | 82 | 2.0 | 8.0 | 0.00 | 0.19 | 0.00 | 85 | 1019.1 |
| 20260902205818 | 73 | 95 | 3.0 | 9.0 | 0.00 | 0.19 | 0.00 | 84 | 1019.1 |
| 20260902205330 | 73 | 74 | 2.0 | 9.0 | 0.00 | 0.19 | 0.00 | 85 | 1019.1 |
| 20260902204825 | 73 | 55 | 2.0 | 6.0 | 0.00 | 0.19 | 0.00 | 84 | 1019.1 |
| 20260902204321 | 73 | 79 | 3.0 | 5.0 | 0.00 | 0.19 | 0.00 | 85 | 1019.1 |
| 20260902203833 | 74 | 65 | 1.0 | 5.0 | 0.00 | 0.19 | 0.00 | 84 | 1019.2 |
| 20260902203325 | 74 | 99 | 2.0 | 7.0 | 0.00 | 0.19 | 0.00 | 84 | 1019.2 |
| 20260902202815 | 74 | 107 | 3.0 | 7.0 | 0.00 | 0.19 | 0.00 | 84 | 1019.2 |
| 20260902202328 | 74 | 104 | 1.0 | 5.0 | 0.00 | 0.19 | 0.00 | 83 | 1019.2 |
| 20260902201844 | 74 | 57 | 2.0 | 5.0 | 0.00 | 0.19 | 0.00 | 83 | 1019.3 |
| 20260902201315 | 74 | 57 | 1.0 | 5.0 | 0.00 | 0.19 | 0.00 | 83 | 1019.3 |
| 20260902200828 | 74 | 63 | 2.0 | 7.0 | 0.00 | 0.19 | 0.00 | 83 | 1019.2 |
| 20260902200324 | 74 | 5 | 1.0 | 7.0 | 0.00 | 0.19 | 0.00 | 83 | 1019.2 |
| 20260902195816 | 74 | 107 | 2.0 | 7.0 | 0.00 | 0.19 | 0.00 | 83 | 1019.1 |
| 20260902195327 | 74 | 161 | 1.0 | 9.0 | 0.00 | 0.19 | 0.00 | 83 | 1019.2 |
| 20260902194819 | 74 | 47 | 3.0 | 9.0 | 0.00 | 0.19 | 0.00 | 82 | 1019.2 |
| 20260902194334 | 74 | 113 | 1.0 | 5.0 | 0.00 | 0.19 | 0.00 | 82 | 1019.3 |
| 20260902193847 | 74 | 97 | 2.0 | 5.0 | 0.00 | 0.19 | 0.00 | 82 | 1019.4 |
| 20260902193317 | 74 | 112 | 2.0 | 6.0 | 0.00 | 0.19 | 0.00 | 82 | 1019.5 |
| 20260902192830 | 74 | 138 | 3.0 | 8.0 | 0.00 | 0.19 | 0.00 | 82 | 1019.4 |
| 20260902192341 | 75 | 112 | 2.0 | 6.0 | 0.00 | 0.19 | 0.00 | 82 | 1019.4 |
| 20260902191816 | 75 | 68 | 2.0 | 8.0 | 0.00 | 0.19 | 0.00 | 82 | 1019.4 |
| 20260902191351 | 74 | 101 | 3.0 | 8.0 | 0.00 | 0.19 | 0.00 | 82 | 1019.3 |
| 20260902190821 | 74 | 135 | 2.0 | 7.0 | 0.00 | 0.19 | 0.00 | 82 | 1019.3 |
| 20260902190316 | 75 | 122 | 2.0 | 6.0 | 0.00 | 0.19 | 0.00 | 82 | 1019.4 |
| 20260902185811 | 74 | 111 | 2.0 | 6.0 | 0.00 | 0.19 | 0.00 | 82 | 1019.4 |
| 20260902185325 | 74 | 107 | 2.0 | 6.0 | 0.00 | 0.19 | 0.00 | 82 | 1019.6 |
| 20260902184816 | 74 | 90 | 1.0 | 7.0 | 0.00 | 0.19 | 0.00 | 82 | 1019.7 |
| 20260902184348 | 75 | 100 | 2.0 | 7.0 | 0.00 | 0.19 | 0.00 | 82 | 1019.9 |
| 20260902183819 | 75 | 78 | 3.0 | 7.0 | 0.00 | 0.19 | 0.00 | 82 | 1019.8 |
| 20260902183316 | 75 | 130 | 2.0 | 6.0 | 0.00 | 0.19 | 0.00 | 81 | 1019.8 |
| 20260902182828 | 75 | 360 | 2.0 | 6.0 | 0.00 | 0.19 | 0.00 | 81 | 1019.7 |
| 20260902182320 | 75 | 84 | 2.0 | 5.0 | 0.00 | 0.19 | 0.00 | 81 | 1019.7 |
| 20260902181831 | 75 | 53 | 2.0 | 5.0 | 0.00 | 0.19 | 0.00 | 81 | 1019.6 |
| 20260902181325 | 75 | 75 | 1.0 | 5.0 | 0.00 | 0.19 | 0.00 | 81 | 1019.7 |
| 20260902180817 | 75 | 130 | 1.0 | 8.0 | 0.00 | 0.19 | 0.00 | 81 | 1019.9 |
| 20260902180329 | 75 | 82 | 3.0 | 6.0 | 0.00 | 0.19 | 0.00 | 80 | 1020.2 |
| 20260902175822 | 75 | 146 | 2.0 | 6.0 | 0.00 | 0.19 | 0.00 | 81 | 1020.2 |
| 20260902175318 | 75 | 117 | 3.0 | 7.0 | 0.00 | 0.19 | 0.00 | 81 | 1020.3 |
| 20260902174831 | 75 | 69 | 1.0 | 7.0 | 0.00 | 0.19 | 0.00 | 81 | 1020.3 |
| 20260902174323 | 75 | 96 | 2.0 | 9.0 | 0.00 | 0.19 | 0.00 | 81 | 1020.3 |
| 20260902173856 | 75 | 82 | 3.0 | 9.0 | 0.00 | 0.19 | 0.00 | 81 | 1020.3 |
| 20260902173346 | 75 | 36 | 5.0 | 9.0 | 0.00 | 0.19 | 0.00 | 80 | 1020.2 |
| 20260902172816 | 75 | 39 | 2.0 | 9.0 | 0.00 | 0.19 | 0.00 | 81 | 1020.4 |
| 20260902172328 | 75 | 53 | 3.0 | 7.0 | 0.00 | 0.19 | 0.00 | 81 | 1020.3 |
| 20260902171821 | 74 | 98 | 3.0 | 7.0 | 0.00 | 0.19 | 0.00 | 81 | 1020.1 |
| 20260902171332 | 74 | 59 | 2.0 | 6.0 | 0.00 | 0.19 | 0.00 | 81 | 1020.0 |
| 20260902170823 | 74 | 51 | 3.0 | 6.0 | 0.00 | 0.19 | 0.00 | 81 | 1020.1 |
| 20260902170339 | 74 | 24 | 3.0 | 5.0 | 0.00 | 0.19 | 0.00 | 81 | 1020.1 |
| 20260902165829 | 74 | 84 | 2.0 | 5.0 | 0.00 | 0.19 | 0.00 | 81 | 1020.2 |
| 20260902165321 | 74 | 132 | 2.0 | 8.0 | 0.00 | 0.19 | 0.00 | 81 | 1020.3 |
| 20260902164816 | 74 | 76 | 2.0 | 8.0 | 0.00 | 0.19 | 0.00 | 80 | 1020.3 |
| 20260902164327 | 74 | 72 | 3.0 | 6.0 | 0.00 | 0.19 | 0.00 | 80 | 1020.3 |
| 20260902163822 | 74 | 49 | 3.0 | 8.0 | 0.00 | 0.19 | 0.00 | 80 | 1020.4 |
| 20260902163317 | 74 | 137 | 2.0 | 8.0 | 0.00 | 0.19 | 0.00 | 81 | 1020.4 |
| 20260902162832 | 74 | 20 | 2.0 | 8.0 | 0.00 | 0.19 | 0.00 | 80 | 1020.4 |
| 20260902162327 | 75 | 31 | 2.0 | 6.0 | 0.00 | 0.19 | 0.00 | 81 | 1020.4 |
| 20260902161839 | 75 | 163 | 2.0 | 8.0 | 0.00 | 0.19 | 0.00 | 81 | 1020.4 |
| 20260902161328 | 75 | 71 | 3.0 | 8.0 | 0.00 | 0.19 | 0.00 | 81 | 1020.4 |
| 20260902160840 | 74 | 58 | 2.0 | 11.0 | 0.00 | 0.19 | 0.00 | 81 | 1020.4 |
| 20260902160351 | 74 | 43 | 4.0 | 11.0 | 0.00 | 0.19 | 0.00 | 81 | 1020.5 |
| 20260902155821 | 74 | 148 | 4.0 | 8.0 | 0.00 | 0.19 | 0.00 | 81 | 1020.5 |
| 20260902155332 | 74 | 149 | 2.0 | 8.0 | 0.00 | 0.19 | 0.00 | 81 | 1020.4 |
| 20260902154823 | 74 | 109 | 2.0 | 8.0 | 0.00 | 0.19 | 0.00 | 81 | 1020.3 |
| 20260902154314 | 74 | 126 | 1.0 | 10.0 | 0.00 | 0.19 | 0.00 | 82 | 1020.3 |
| 20260902153848 | 74 | 80 | 3.0 | 10.0 | 0.00 | 0.19 | 0.00 | 82 | 1020.3 |
| 20260902153319 | 74 | 152 | 2.0 | 5.0 | 0.00 | 0.19 | 0.00 | 82 | 1020.2 |
| 20260902152815 | 74 | 86 | 1.0 | 10.0 | 0.00 | 0.19 | 0.00 | 82 | 1020.2 |
| 20260902152326 | 74 | 82 | 3.0 | 10.0 | 0.00 | 0.19 | 0.00 | 82 | 1020.4 |
| 20260902151838 | 74 | 78 | 3.0 | 10.0 | 0.00 | 0.19 | 0.00 | 83 | 1020.4 |
| 20260902151329 | 74 | 125 | 2.0 | 6.0 | 0.00 | 0.19 | 0.00 | 83 | 1020.4 |
| 20260902150820 | 74 | 108 | 2.0 | 10.0 | 0.00 | 0.19 | 0.00 | 83 | 1020.5 |
| 20260902150332 | 74 | 65 | 4.0 | 10.0 | 0.00 | 0.19 | 0.00 | 83 | 1020.5 |
| 20260902145823 | 73 | 83 | 3.0 | 8.0 | 0.00 | 0.19 | 0.00 | 84 | 1020.4 |
| 20260902145315 | 73 | 88 | 3.0 | 8.0 | 0.00 | 0.19 | 0.00 | 85 | 1020.4 |
| 20260902144814 | 73 | 92 | 2.0 | 6.0 | 0.00 | 0.19 | 0.00 | 85 | 1020.4 |
| 20260902144326 | 73 | 67 | 2.0 | 8.0 | 0.00 | 0.19 | 0.00 | 85 | 1020.3 |
| 20260902143817 | 73 | 51 | 2.0 | 7.0 | 0.00 | 0.19 | 0.00 | 85 | 1020.2 |
| 20260902143349 | 72 | 74 | 1.0 | 7.0 | 0.00 | 0.19 | 0.00 | 86 | 1020.3 |
| 20260902142819 | 72 | 69 | 2.0 | 8.0 | 0.00 | 0.19 | 0.00 | 86 | 1020.5 |
| 20260902142334 | 72 | 56 | 3.0 | 12.0 | 0.00 | 0.19 | 0.00 | 86 | 1020.5 |
| 20260902141825 | 72 | 64 | 4.0 | 13.0 | 0.00 | 0.19 | 0.00 | 86 | 1020.6 |
| 20260902141317 | 72 | 28 | 4.0 | 10.0 | 0.00 | 0.19 | 0.00 | 87 | 1020.6 |
| 20260902140828 | 72 | 76 | 4.0 | 10.0 | 0.00 | 0.19 | 0.00 | 87 | 1020.6 |
| 20260902140320 | 72 | 77 | 4.0 | 11.0 | 0.00 | 0.19 | 0.00 | 88 | 1020.5 |
| 20260902135815 | 72 | 76 | 4.0 | 11.0 | 0.00 | 0.19 | 0.00 | 88 | 1020.4 |
| 20260902135326 | 72 | 44 | 2.0 | 8.0 | 0.00 | 0.19 | 0.00 | 88 | 1020.4 |
| 20260902134817 | 72 | 44 | 4.0 | 8.0 | 0.00 | 0.19 | 0.00 | 88 | 1020.3 |
| 20260902134328 | 72 | 100 | 2.0 | 8.0 | 0.00 | 0.19 | 0.00 | 88 | 1020.2 |
| 20260902133823 | 72 | 82 | 3.0 | 8.0 | 0.00 | 0.19 | 0.00 | 89 | 1020.1 |
| 20260902133315 | 72 | 81 | 2.0 | 8.0 | 0.00 | 0.19 | 0.00 | 89 | 1020.0 |
| 20260902132826 | 72 | 89 | 2.0 | 6.0 | 0.00 | 0.19 | 0.00 | 89 | 1019.9 |
| 20260902132321 | 72 | 52 | 2.0 | 7.0 | 0.00 | 0.19 | 0.00 | 89 | 1019.9 |
| 20260902131816 | 72 | 82 | 3.0 | 12.0 | 0.00 | 0.19 | 0.00 | 89 | 1019.9 |
| 20260902131328 | 72 | 72 | 3.0 | 12.0 | 0.00 | 0.19 | 0.00 | 89 | 1019.8 |
| 20260902130820 | 72 | 115 | 3.0 | 9.0 | 0.00 | 0.19 | 0.00 | 90 | 1019.8 |
| 20260902130331 | 72 | 44 | 2.0 | 7.0 | 0.00 | 0.19 | 0.00 | 90 | 1019.7 |
| 20260902125823 | 71 | 160 | 3.0 | 8.0 | 0.00 | 0.19 | 0.00 | 90 | 1019.6 |
| 20260902125336 | 71 | 45 | 2.0 | 8.0 | 0.00 | 0.19 | 0.00 | 91 | 1019.6 |
| 20260902124846 | 71 | 70 | 2.0 | 7.0 | 0.00 | 0.19 | 0.00 | 91 | 1019.5 |
| 20260902124339 | 71 | 50 | 2.0 | 9.0 | 0.00 | 0.19 | 0.00 | 91 | 1019.5 |
| 20260902123322 | 71 | 104 | 3.0 | 9.0 | 0.00 | 0.19 | 0.00 | 91 | 1019.5 |
| 20260902122817 | 71 | 319 | 1.0 | 6.0 | 0.00 | 0.19 | 0.00 | 91 | 1019.5 |
| 20260902122328 | 71 | 138 | 2.0 | 8.0 | 0.00 | 0.19 | 0.00 | 92 | 1019.4 |
| 20260902121820 | 71 | 86 | 4.0 | 8.0 | 0.00 | 0.19 | 0.00 | 92 | 1019.4 |
| 20260902121311 | 71 | 72 | 2.0 | 11.0 | 0.00 | 0.19 | 0.00 | 92 | 1019.4 |
| 20260902120825 | 71 | 101 | 4.0 | 11.0 | 0.00 | 0.19 | 0.00 | 92 | 1019.4 |
| 20260902120316 | 71 | 70 | 4.0 | 7.0 | 0.00 | 0.19 | 0.00 | 92 | 1019.4 |
| 20260902115828 | 71 | 53 | 3.0 | 10.0 | 0.00 | 0.19 | 0.00 | 92 | 1019.5 |
| 20260902115320 | 70 | 11 | 5.0 | 11.0 | 0.00 | 0.19 | 0.00 | 92 | 1019.5 |
| 20260902114815 | 70 | 55 | 6.0 | 14.0 | 0.00 | 0.19 | 0.00 | 92 | 1019.4 |
| 20260902114349 | 70 | 38 | 5.0 | 14.0 | 0.00 | 0.19 | 0.00 | 92 | 1019.4 |
| 20260902113820 | 70 | 32 | 6.0 | 13.0 | 0.00 | 0.19 | 0.00 | 92 | 1019.5 |
| 20260902113331 | 70 | 71 | 3.0 | 9.0 | 0.00 | 0.19 | 0.00 | 92 | 1019.5 |
| 20260902112823 | 70 | 85 | 4.0 | 14.0 | 0.00 | 0.19 | 0.00 | 92 | 1019.5 |
| 20260902112354 | 70 | 85 | 4.0 | 12.0 | 0.00 | 0.19 | 0.00 | 92 | 1019.6 |
| 20260902111316 | 70 | 65 | 4.0 | 15.0 | 0.00 | 0.19 | 0.00 | 92 | 1019.5 |
| 20260902110826 | 70 | 286 | 4.0 | 12.0 | 0.00 | 0.19 | 0.00 | 92 | 1019.5 |
| 20260902110320 | 70 | 38 | 5.0 | 12.0 | 0.00 | 0.19 | 0.00 | 92 | 1019.4 |
| 20260902105816 | 70 | 34 | 4.0 | 11.0 | 0.00 | 0.19 | 0.00 | 92 | 1019.3 |
| 20260902105327 | 70 | 56 | 4.0 | 11.0 | 0.00 | 0.19 | 0.00 | 92 | 1019.4 |
| 20260902104819 | 70 | 67 | 5.0 | 11.0 | 0.00 | 0.19 | 0.00 | 92 | 1019.3 |
| 20260902104330 | 70 | 29 | 4.0 | 10.0 | 0.00 | 0.19 | 0.00 | 92 | 1019.3 |
| 20260902103821 | 70 | 67 | 3.0 | 9.0 | 0.00 | 0.19 | 0.00 | 92 | 1019.2 |
| 20260902103333 | 70 | 115 | 3.0 | 11.0 | 0.00 | 0.19 | 0.00 | 92 | 1019.1 |
| 20260902102824 | 70 | 45 | 3.0 | 11.0 | 0.00 | 0.19 | 0.00 | 92 | 1019.1 |
| 20260902102317 | 70 | 71 | 4.0 | 9.0 | 0.00 | 0.19 | 0.00 | 92 | 1019.0 |
| 20260902101815 | 70 | 51 | 4.0 | 12.0 | 0.00 | 0.19 | 0.00 | 92 | 1019.0 |
| 20260902101326 | 70 | 58 | 4.0 | 9.0 | 0.00 | 0.19 | 0.00 | 92 | 1019.0 |
| 20260902100841 | 70 | 61 | 5.0 | 16.0 | 0.00 | 0.19 | 0.00 | 92 | 1018.9 |
| 20260902100331 | 70 | 55 | 5.0 | 14.0 | 0.00 | 0.19 | 0.00 | 92 | 1018.8 |
| 20260902095821 | 71 | 76 | 5.0 | 12.0 | 0.00 | 0.19 | 0.00 | 92 | 1018.8 |
| 20260902095333 | 71 | 94 | 6.0 | 12.0 | 0.00 | 0.19 | 0.00 | 92 | 1018.7 |
| 20260902094316 | 71 | 45 | 4.0 | 11.0 | 0.00 | 0.19 | 0.00 | 92 | 1018.7 |
| 20260902093826 | 71 | 46 | 3.0 | 9.0 | 0.00 | 0.19 | 0.00 | 92 | 1018.6 |
| 20260902093323 | 71 | 72 | 3.0 | 11.0 | 0.00 | 0.19 | 0.00 | 92 | 1018.5 |
| 20260902092854 | 71 | 82 | 5.0 | 11.0 | 0.00 | 0.19 | 0.00 | 92 | 1018.5 |
| 20260902092343 | 71 | 57 | 4.0 | 13.0 | 0.00 | 0.19 | 0.00 | 92 | 1018.4 |
| 20260902091834 | 71 | 78 | 5.0 | 13.0 | 0.00 | 0.19 | 0.00 | 92 | 1018.4 |
| 20260902091326 | 71 | 5 | 4.0 | 11.0 | 0.00 | 0.19 | 0.00 | 92 | 1018.4 |
| 20260902090821 | 71 | 40 | 4.0 | 10.0 | 0.00 | 0.19 | 0.00 | 91 | 1018.3 |
| 20260902085829 | 71 | 86 | 5.0 | 12.0 | 0.00 | 0.19 | 0.00 | 92 | 1018.3 |
| 20260902085344 | 71 | 94 | 4.0 | 11.0 | 0.00 | 0.19 | 0.00 | 91 | 1018.3 |
| 20260902084855 | 71 | 70 | 2.0 | 9.0 | 0.00 | 0.19 | 0.00 | 92 | 1018.4 |
| 20260902084329 | 71 | 83 | 5.0 | 12.0 | 0.00 | 0.19 | 0.00 | 91 | 1018.4 |
| 20260902083820 | 71 | 54 | 4.0 | 14.0 | 0.00 | 0.19 | 0.00 | 91 | 1018.3 |
| 20260902083331 | 71 | 19 | 6.0 | 14.0 | 0.00 | 0.19 | 0.00 | 92 | 1018.2 |
| 20260902082822 | 71 | 93 | 3.0 | 9.0 | 0.00 | 0.19 | 0.00 | 92 | 1018.1 |
| 20260902082353 | 71 | 73 | 4.0 | 9.0 | 0.00 | 0.19 | 0.00 | 92 | 1018.1 |
| 20260902081824 | 71 | 62 | 4.0 | 8.0 | 0.00 | 0.19 | 0.00 | 92 | 1018.1 |
| 20260902081336 | 71 | 67 | 4.0 | 10.0 | 0.00 | 0.19 | 0.00 | 92 | 1018.1 |
| 20260902080830 | 71 | 69 | 3.0 | 11.0 | 0.00 | 0.19 | 0.00 | 92 | 1018.0 |
| 20260902080321 | 71 | 67 | 3.0 | 11.0 | 0.00 | 0.19 | 0.00 | 92 | 1017.9 |
| 20260902075819 | 71 | 34 | 4.0 | 13.0 | 0.00 | 0.19 | 0.00 | 92 | 1017.8 |
| 20260902075331 | 71 | 92 | 5.0 | 13.0 | 0.00 | 0.19 | 0.00 | 92 | 1017.7 |
| 20260902074843 | 71 | 51 | 4.0 | 8.0 | 0.00 | 0.19 | 0.00 | 92 | 1017.6 |
| 20260902074333 | 71 | 109 | 4.0 | 9.0 | 0.00 | 0.19 | 0.00 | 92 | 1017.6 |
| 20260902073824 | 72 | 85 | 2.0 | 9.0 | 0.00 | 0.19 | 0.00 | 92 | 1017.7 |
| 20260902073336 | 72 | 63 | 3.0 | 11.0 | 0.00 | 0.19 | 0.00 | 92 | 1017.7 |
| 20260902072827 | 71 | 112 | 2.0 | 9.0 | 0.00 | 0.19 | 0.00 | 92 | 1017.6 |
| 20260902072339 | 71 | 54 | 4.0 | 12.0 | 0.00 | 0.19 | 0.00 | 92 | 1017.6 |
| 20260902071830 | 71 | 60 | 5.0 | 14.0 | 0.00 | 0.19 | 0.00 | 92 | 1017.5 |
| 20260902071321 | 71 | 41 | 5.0 | 13.0 | 0.00 | 0.19 | 0.00 | 92 | 1017.4 |
| 20260902070816 | 71 | 53 | 6.0 | 13.0 | 0.00 | 0.19 | 0.00 | 92 | 1017.4 |
| 20260902070328 | 71 | 39 | 4.0 | 13.0 | 0.00 | 0.19 | 0.00 | 92 | 1017.4 |
| 20260902065819 | 71 | 55 | 7.0 | 13.0 | 0.00 | 0.19 | 0.00 | 92 | 1017.4 |
| 20260902065330 | 72 | 76 | 5.0 | 14.0 | 0.00 | 0.19 | 0.00 | 92 | 1017.5 |
| 20260902064821 | 72 | 64 | 7.0 | 14.0 | 0.00 | 0.19 | 0.00 | 92 | 1017.5 |
| 20260902064332 | 72 | 40 | 5.0 | 12.0 | 0.00 | 0.19 | 0.00 | 92 | 1017.6 |
| 20260902063824 | 72 | 67 | 4.0 | 13.0 | 0.00 | 0.19 | 0.00 | 92 | 1017.7 |
| 20260902063315 | 72 | 24 | 6.0 | 12.0 | 0.00 | 0.19 | 0.00 | 91 | 1017.7 |
| 20260902062826 | 72 | 68 | 4.0 | 11.0 | 0.00 | 0.19 | 0.00 | 92 | 1017.6 |
| 20260902062321 | 72 | 69 | 5.0 | 14.0 | 0.00 | 0.19 | 0.00 | 92 | 1017.6 |
| 20260902061833 | 72 | 74 | 4.0 | 13.0 | 0.00 | 0.19 | 0.00 | 92 | 1017.6 |
| 20260902061326 | 72 | 65 | 3.0 | 16.0 | 0.00 | 0.19 | 0.00 | 92 | 1017.6 |
| 20260902060838 | 72 | 41 | 8.0 | 14.0 | 0.00 | 0.19 | 0.00 | 92 | 1017.6 |
| 20260902060328 | 72 | 45 | 6.0 | 13.0 | 0.00 | 0.19 | 0.00 | 92 | 1017.6 |
| 20260902055819 | 72 | 5 | 6.0 | 14.0 | 0.00 | 0.19 | 0.00 | 92 | 1017.6 |
| 20260902055331 | 72 | 40 | 5.0 | 12.0 | 0.00 | 0.19 | 0.00 | 92 | 1017.7 |
| 20260902054825 | 72 | 84 | 5.0 | 11.0 | 0.00 | 0.19 | 0.00 | 92 | 1017.7 |
| 20260902054317 | 72 | 65 | 5.0 | 10.0 | 0.00 | 0.19 | 0.00 | 92 | 1017.7 |
| 20260902053832 | 72 | 15 | 4.0 | 10.0 | 0.00 | 0.19 | 0.00 | 92 | 1017.7 |
| 20260902053323 | 72 | 82 | 3.0 | 10.0 | 0.00 | 0.19 | 0.00 | 92 | 1017.5 |
| 20260902052819 | 72 | 65 | 4.0 | 10.0 | 0.00 | 0.19 | 0.00 | 92 | 1017.5 |
| 20260902052330 | 72 | 61 | 3.0 | 10.0 | 0.00 | 0.19 | 0.00 | 92 | 1017.6 |
| 20260902051841 | 72 | 15 | 5.0 | 10.0 | 0.00 | 0.19 | 0.00 | 92 | 1017.7 |
| 20260902051332 | 72 | 62 | 5.0 | 14.0 | 0.00 | 0.19 | 0.00 | 92 | 1017.6 |
| 20260902050824 | 72 | 17 | 5.0 | 13.0 | 0.00 | 0.19 | 0.00 | 92 | 1017.7 |
| 20260902050316 | 72 | 43 | 3.0 | 12.0 | 0.00 | 0.19 | 0.00 | 92 | 1017.6 |
| 20260902045827 | 72 | 80 | 6.0 | 12.0 | 0.00 | 0.19 | 0.00 | 92 | 1017.5 |
| 20260902045342 | 72 | 55 | 3.0 | 7.0 | 0.00 | 0.19 | 0.00 | 92 | 1017.5 |
| 20260902044831 | 72 | 121 | 3.0 | 13.0 | 0.00 | 0.19 | 0.00 | 92 | 1017.6 |
| 20260902044323 | 72 | 63 | 4.0 | 13.0 | 0.00 | 0.19 | 0.00 | 92 | 1017.8 |
| 20260902043818 | 72 | 44 | 4.0 | 9.0 | 0.00 | 0.19 | 0.00 | 92 | 1017.8 |
| 20260902043352 | 72 | 30 | 4.0 | 13.0 | 0.00 | 0.19 | 0.00 | 92 | 1017.7 |
| 20260902042823 | 72 | 338 | 4.0 | 17.0 | 0.00 | 0.19 | 0.00 | 92 | 1017.6 |
| 20260902041826 | 72 | 76 | 3.0 | 13.0 | 0.00 | 0.19 | 0.00 | 92 | 1017.5 |
| 20260902041322 | 72 | 51 | 4.0 | 13.0 | 0.00 | 0.19 | 0.00 | 92 | 1017.4 |
| 20260902040817 | 72 | 34 | 4.0 | 16.0 | 0.00 | 0.19 | 0.00 | 92 | 1017.1 |
| 20260902040328 | 72 | 93 | 8.0 | 16.0 | 0.00 | 0.19 | 0.00 | 92 | 1017.0 |
| 20260902035837 | 72 | 52 | 6.0 | 17.0 | 0.00 | 0.19 | 0.00 | 92 | 1017.1 |
| 20260902035349 | 72 | 86 | 7.0 | 17.0 | 0.00 | 0.19 | 0.00 | 92 | 1017.1 |
| 20260902034821 | 72 | 9 | 5.0 | 12.0 | 0.00 | 0.19 | 0.00 | 93 | 1017.1 |
| 20260902034333 | 72 | 53 | 6.0 | 17.0 | 0.00 | 0.19 | 0.00 | 92 | 1017.0 |
| 20260902033846 | 72 | 71 | 7.0 | 13.0 | 0.00 | 0.19 | 0.19 | 92 | 1016.9 |
| 20260902033317 | 72 | 65 | 6.0 | 17.0 | 0.00 | 0.19 | 0.19 | 92 | 1016.8 |
| 20260902032828 | 72 | 83 | 7.0 | 17.0 | 0.00 | 0.19 | 0.19 | 93 | 1016.8 |
| 20260902032319 | 72 | 52 | 5.0 | 18.0 | 0.00 | 0.19 | 0.19 | 93 | 1016.7 |
| 20260902031814 | 72 | 355 | 7.0 | 18.0 | 0.00 | 0.19 | 0.19 | 92 | 1016.6 |
| 20260902031327 | 72 | 80 | 5.0 | 13.0 | 0.00 | 0.19 | 0.19 | 92 | 1016.4 |
| 20260902030819 | 73 | 59 | 7.0 | 13.0 | 0.00 | 0.19 | 0.19 | 92 | 1016.4 |
| 20260902030329 | 73 | 59 | 5.0 | 11.0 | 0.00 | 0.19 | 0.19 | 92 | 1016.5 |
| 20260902025824 | 73 | 19 | 4.0 | 14.0 | 0.00 | 0.19 | 0.19 | 92 | 1016.5 |
| 20260902025319 | 73 | 11 | 6.0 | 14.0 | 0.00 | 0.19 | 0.19 | 92 | 1016.6 |
| 20260902024830 | 74 | 18 | 3.0 | 11.0 | 0.00 | 0.19 | 0.19 | 92 | 1016.7 |
| 20260902024322 | 74 | 47 | 5.0 | 14.0 | 0.00 | 0.19 | 0.19 | 92 | 1016.7 |
| 20260902023853 | 74 | 33 | 6.0 | 14.0 | 0.00 | 0.19 | 0.19 | 92 | 1016.7 |
| 20260902023328 | 75 | 360 | 5.0 | 11.0 | 0.00 | 0.19 | 0.19 | 92 | 1016.6 |
| 20260902022823 | 75 | 47 | 4.0 | 9.0 | 0.00 | 0.19 | 0.19 | 92 | 1016.4 |
| 20260902022316 | 75 | 24 | 3.0 | 9.0 | 0.00 | 0.19 | 0.19 | 92 | 1016.1 |
| 20260902021849 | 75 | 56 | 4.0 | 8.0 | 0.00 | 0.19 | 0.19 | 92 | 1016.0 |
| 20260902021318 | 75 | 38 | 4.0 | 8.0 | 0.00 | 0.19 | 0.19 | 92 | 1015.8 |
| 20260902020850 | 75 | 10 | 4.0 | 9.0 | 0.00 | 0.19 | 0.19 | 92 | 1015.7 |
| 20260902020341 | 75 | 23 | 5.0 | 10.0 | 0.00 | 0.19 | 0.19 | 92 | 1015.6 |
| 20260902015850 | 75 | 28 | 2.0 | 10.0 | 0.00 | 0.19 | 0.19 | 92 | 1015.4 |
| 20260902015321 | 75 | 87 | 3.0 | 9.0 | 0.00 | 0.19 | 0.19 | 92 | 1015.8 |
| 20260902014812 | 75 | 46 | 3.0 | 9.0 | 0.00 | 0.19 | 0.19 | 91 | 1015.9 |
| 20260902014326 | 74 | 5 | 3.0 | 6.0 | 0.01 | 0.19 | 0.19 | 91 | 1015.9 |
| 20260902013838 | 74 | 12 | 3.0 | 6.0 | 0.01 | 0.19 | 0.19 | 91 | 1015.6 |
| 20260902013347 | 74 | 340 | 2.0 | 4.0 | 0.11 | 0.19 | 0.19 | 90 | 1015.4 |
| 20260902012822 | 74 | 360 | 3.0 | 4.0 | 0.19 | 0.19 | 0.19 | 90 | 1015.2 |
| 20260902012354 | 74 | 274 | 0.0 | 3.0 | 0.19 | 0.19 | 0.19 | 89 | 1015.0 |